Regional Weather Roundup
Issued by NWS

Home | Current Version | Previous Version | Graphics & Text | Print | Product List | Glossary On
Versions: 1 2 3 4 5 6 7 8 9 10 11 12 13 14 15 16 17 18 19 20 21 22 23 24 25 26 27 28 29 30 31 32 33 34 35 36 37 38 39 40 41 42 43 44 45 46 47 48 49 50
000
ASUS45 KBOU 222307
RWRCO

WEATHER ROUNDUP FOR COLORADO
NATIONAL WEATHER SERVICE DENVER/BOULDER CO
500 PM MDT MON SEP 22 2014

NOTE: "FAIR" INDICATES FEW OR NO CLOUDS BELOW 12000 FEET WITH NO
SIGNIFICANT WEATHER AND/OR OBSTRUCTIONS TO VISIBILITY.

COZ001>005-013-030-031-230000-
...NORTHWEST COLORADO...

CITY           SKY/WX    TMP DP  RH WIND       PRES   REMARKS
CRAIG          PTSUNNY   72  44  36 W17       30.20S
HAYDEN         CLOUDY    66  43  42 W13       30.21S
MEEKER         LGT RAIN  66  46  48 W9        30.22F
MOUNT WERNER   NOT AVBL
STEAMBOAT SPGS CLOUDY    61  49  64 SE7       30.24S
WALDEN         PTSUNNY   59  36  41 W16G22    30.28F
$$

COZ006>008-011-230000-
...WEST CENTRAL VALLEYS...

CITY           SKY/WX    TMP DP  RH WIND       PRES   REMARKS
GRAND JUNCTION MOSUNNY   78  51  38 NW13      30.13S
MONTROSE       CLOUDY    71  52  50 N7        30.21S
EAGLE          MOSUNNY   66  52  59 CALM      30.26F
RIFLE          MOSUNNY   75  48  38 W15       30.16F
DELTA          RAIN      79  50  36 NW6       30.15F
NUCLA          MOSUNNY   75  45  33 W9        30.24F
$$

COZ017>023-064>068-230000-
...SOUTHWEST COLORADO...

CITY           SKY/WX    TMP DP  RH WIND       PRES   REMARKS
DURANGO          N/A    N/A N/A N/A MISG      30.24F
CORTEZ         SUNNY     77  42  28 W12       30.22F
PAGOSA SPRINGS MOSUNNY   70  46  42 SW9       30.32F
TELLURIDE      NOT AVBL
WOLF CREEK PAS CLOUDY    45  45 100 SW14G29   30.57S
$$

COZ009-010-012-014-032>034-037-058>063-230000-
...CENTRAL COLORADO...

CITY           SKY/WX    TMP DP  RH WIND       PRES   REMARKS
ASPEN          PTSUNNY   61  47  59 W5        30.31F
BUENA VISTA    CLOUDY    65  42  42 W20G29    30.29S
COPPER MTN     MOSUNNY   52  37  58 W22G37    30.56S
BERTHOUD PASS  CLOUDY    36  34  93 MISG      30.58F
COTTONWOOD PAS PTSUNNY   59  41  51 N10G21    30.40F
GUNNISON       PTSUNNY   64  45  48 N3        30.32S
KREMMLING      RAIN      54  45  71 NW10      30.31R
LEADVILLE      CLOUDY    54  37  52 NW8G18    30.41S
MONARCH PASS   MOSUNNY   45  41  87 W38G46    30.64S
SALIDA         MOSUNNY   71  42  35 SW15G21   30.34S
SUNLIGHT       PTSUNNY   52  50  93 CALM      30.50S
WILKERSON PASS NOT AVBL
$$

COZ069>075-230000-
...SAN LUIS VALLEY/SANGRE DE CRISTO MOUNTAINS...

CITY           SKY/WX    TMP DP  RH WIND       PRES   REMARKS
ALAMOSA        PTSUNNY   69  47  45 S17       30.27F
LA VETA PASS   PTSUNNY   59  45  58 S7G22     30.45F
SAGUACHE       MOSUNNY   68  45  42 NW8       30.31S
$$

COZ035-036-038>040-230000-
...NORTHERN COLORADO FRONT RANGE...

CITY           SKY/WX    TMP DP  RH WIND       PRES   REMARKS
DENVER INTL AP PTSUNNY   79  46  31 N10       30.10F
DMNS CITY PARK   N/A     75  42  30 N5G10     30.08F
AURORA         PTSUNNY   73  49  41 NE7       30.12F
FRONT RANGE AP NOT AVBL
ERIE MUNI ARPT NOT AVBL
BOULDER MUN AP MOSUNNY   77  41  27 W22G31    30.07F THUNDER
CENTENNIAL     PTSUNNY   73  48  41 N8        30.13S
BROOMFIELD     PTSUNNY   77  41  27 CALM      30.11F
FORT COLLINS   MOSUNNY   79  48  34 E6        30.07F
LONGMONT       MOSUNNY   78  40  26 CALM      30.09S
$$

COZ041-046-047-076>085-087-088-230000-
...PIKES PEAK/PALMER DIVIDE AND SOUTHERN FOOTHILLS...

CITY           SKY/WX    TMP DP  RH WIND       PRES   REMARKS
COLO. SPRINGS  PTSUNNY   73  49  42 S14       30.17F
A. F. ACADEMY  PTSUNNY   72  51  48 S12       30.17F
ELLICOTT       NOT AVBL
FALCON         PTSUNNY   69  48  47 S12       30.21F
FORT CARSON    PTSUNNY   76  50  40 S14       30.13F
LIMON          MOSUNNY   78  50  37 S16G23    30.10F
MONUMENT HILL  CLOUDY    63  50  63 N14G25    30.23R
TRINIDAD       CLOUDY    72  55  55 S13G22    30.16F
$$

COZ042>045-048>051-090-091-230000-
...NORTHEAST COLORADO...

CITY           SKY/WX    TMP DP  RH WIND       PRES   REMARKS
GREELEY ARPT   PTSUNNY   79  48  34 W3        30.07F
AKRON          TSTM      62  60  93 NE15G28   30.07R FOG
BURLINGTON     CLOUDY    75  54  47 S22G31    30.09F
WRAY           CLOUDY    78  52  39 SE18G25   30.04F
STERLING       PTSUNNY   81  59  47 S6        30.01F
HOLYOKE        CLOUDY    77  54  44 SE12G21   30.06F
FORT MORGAN    PTSUNNY   80  48  33 W3        30.05F
$$

COZ086-089-092>099-230000-
...SOUTHEAST COLORADO...

CITY           SKY/WX    TMP DP  RH WIND       PRES   REMARKS
PUEBLO         PTSUNNY   77  54  44 S5        30.08F
LA JUNTA       PTSUNNY   73  60  63 S13       30.08S
LAMAR          CLOUDY    73  61  65 S16       30.06F
SPRINGFIELD      N/A     72  57  59 S24G32    30.16F
$$



USA.gov is the U.S. government's official web portal to all federal, state and local government web resources and services.